Weather in Jarkurgan

Uzbekistan     37°30′30″N   67°24′49″E
temp.,
°C
wind,
m/s
gust,
m/s
humid.,
%
clouds,
%
prec.,
mm/h
press.,
hPa
HPBL,
m
15 april, thu
thu1523:00+22w2431100 0.0 101277
02:00+20s2236100 0.1 101212
05:00+19sse2337100 0.1 101321
08:00+20ssw462690 0.0 1014278
11:00+25sw4416100 0.0 1015971
14:00+27sw4416100 0.0 10132169
17:00+26sw5417100 0.0 10121882
20:00+22sw331991 0.0 101334
16 april, fri
fri1623:00+19sse01230 0.0 101411
02:00+18ne22220 0.0 101311
05:00+17ne22495 0.0 101416
08:00+20ene0143100 0.0 1015150
11:00+24ssw113087 0.0 10151146
14:00+27wsw11225 0.0 10132552
17:00+27w2219100 0.0 10122482
20:00+23wsw222382 0.0 101216
17 april, sat
sat1723:00+21wnw222564 0.0 101213
02:00+20ne222729 0.0 101111
05:00+18nne11320 0.0 101211
08:00+22sw11265 0.0 1014168
11:00+26sw44185 0.0 10141218
14:00+28wsw641753 0.0 10132522
17:00+28sw551795 0.0 10122138
20:00+24s331669 0.0 101221
18 april, sun
sun1823:00+21wnw4829100 0.0 1014166
02:00+21wsw5132896 0.1 1015344
05:00+18wsw9163263 0.1 1016396
08:00+19wsw911327 0.0 1019510
11:00+24wsw66240 0.0 10191557
14:00+27sw64181 0.0 10173102
17:00+26sw53180 0.0 10162517
20:00+22ssw112497 0.0 101615
19 april, mon
mon1923:00+19nne454382 0.0 101681
02:00+18ne44345 0.0 101544
05:00+17ne454273 0.0 101569
08:00+20ne35355 0.0 1014241
11:00+26e4422100 0.0 10132058
14:00+28ese3317100 0.0 10112363
17:00+28e321512 0.0 10092356
20:00+24e231943 0.0 101015